Regional Weather Roundup
Issued by NWS

Home | Current Version | Previous Version | Graphics & Text | Print | Product List | Glossary On
Versions: 1 2 3 4 5 6 7 8 9 10 11 12 13 14 15 16 17 18 19 20 21 22 23 24 25 26 27 28 29 30 31 32 33 34 35 36 37 38 39 40 41 42 43 44 45 46 47 48 49 50
000
ASUS45 KTFX 262010
RWRMT
MONTANA REGIONAL WEATHER ROUNDUP
NATIONAL WEATHER SERVICE GREAT FALLS MT
200 PM MDT MON JUN 26 2017

NOTE: "FAIR" INDICATES FEW OR NO CLOUDS BELOW 12000 FEET WITH NO
SIGNIFICANT WEATHER AND/OR OBSTRUCTIONS TO VISIBILITY.

MTZ001>007-043-262100-
WEST OF THE DIVIDE

CITY           SKY/WX    TMP DP  RH WIND       PRES   REMARKS
KALISPELL      PTSUNNY   85  50  29 S8        29.86F
MISSOULA       MOSUNNY   85  48  27 CALM      29.88F
BUTTE          SUNNY     87  30  13 SW13G22   30.05F
MULLAN PASS    PTSUNNY   75  43  31 VRB7      30.10R
ANACONDA         N/A     84  36  17 S16G23    29.99F
DEER LODGE       N/A     84  41  21 NW8       29.98S
EUREKA           N/A     86  48  26 CALM      29.83S
HAMILTON         N/A     84  57  39 NW7       29.90F
$$

MTZ008-052>055-262100-
SOUTHWEST MONTANA

CITY           SKY/WX    TMP DP  RH WIND       PRES   REMARKS
BOZEMAN        SUNNY     89  47  23 N7        29.98F
DILLON         SUNNY     80  47  31 SW9       30.03F
W YELLOWSTONE  SUNNY     79  34  19 SW14      30.20F
ENNIS          MOSUNNY   88  28  11 S10G22    30.10F
THREE FORKS      N/A     85  51  30 NE3       29.97F
$$

MTZ009-010-012-014-046-048-049-054-262100-
EAST SLOPES AND CENTRAL MONTANA

CITY           SKY/WX    TMP DP  RH WIND       PRES   REMARKS
CUT BANK       PTSUNNY   88  49  25 S15       29.86F
GREAT FALLS    SUNNY     92  42  17 SW15G24   29.86F
MALMSTROM AFB  SUNNY     92  46  20 W9G16     29.85F
HELENA         SUNNY     90  49  24 N6        29.90F
CHOTEAU          N/A     93  41  16 SW12      29.88F
$$

MTZ011-013-016-021-045-047-050-051-262100-
NORTH CENTRAL MONTANA

CITY           SKY/WX    TMP DP  RH WIND       PRES   REMARKS
HAVRE          MOSUNNY   92  36  14 SE9       29.82F
LEWISTOWN      SUNNY     90  39  16 SW14G24   29.95F
N BAR RANCH      N/A     82  37  20 S21G28    30.04F
CHINOOK          N/A     90  36  14 SE14G21   29.84F
FORT BENTON      N/A     93  45  18 MISG      29.83F
$$

MTZ017>020-022>027-061-062-262100-
NORTHEAST MONTANA

CITY           SKY/WX    TMP DP  RH WIND       PRES   REMARKS
GLASGOW        CLOUDY    86  33  15 SE20G26   29.95
JORDAN           N/A     86  30  13 S20G26    29.96F
SIDNEY         SUNNY     82  39  21 VRB6      30.04F
WOLF POINT     SUNNY     85  38  18 SE9G17    29.99F
MALTA          SUNNY     86  37  17 S14G20    29.90F
PLENTYWOOD       N/A     79  39  24 S12G20    30.04F
POPLAR           N/A     81  39  22 SE8       30.01F
$$

MTZ028>42-056>058-262100-
SOUTHCENTRAL AND SOUTHEAST MONTANA

CITY           SKY/WX    TMP DP  RH WIND       PRES   REMARKS
BAKER          MOSUNNY   82  34  17 SE14G23   30.09F
BILLINGS       MOSUNNY   89  39  17 S8        29.97F
LIVINGSTON     SUNNY     87  46  24 E12       29.99F
MILES CITY     CLOUDY    84  32  15 SE12G18   30.00F
BIG TIMBER     SUNNY     86  43  22 NE6       30.02F
FORSYTH          N/A     86  34  15 S7        29.98F
ROUNDUP          N/A     88  38  17 SE13      29.89F
$$

REGIONAL REPORTS...DAKOTAS

CITY           SKY/WX    TMP DP  RH WIND       PRES   REMARKS
WILLISTON      SUNNY     82  42  24 SE13      30.07F
MINOT          SUNNY     73  39  29 S8        30.13F
DICKINSON      SUNNY     76  33  21 S10G20    30.11F
BEACH            N/A     79  32  18 S12G23    30.12F
CROSBY           N/A     73  45  35 SW9G15    30.08F
TIOGA            N/A     72  43  35 S14G20    30.12F
WATFORD CITY     N/A     77  45  31 S10G23    30.08F
BISMARCK       SUNNY     74  43  32 S8        30.17F
GRAND FORKS    MOSUNNY   74  40  29 VRB7G17   30.14F
FARGO          PTSUNNY   74  37  26 W7G16     30.16F
BUFFALO SD       N/A     79  37  22 S15G25    30.06F
RAPID CITY     SUNNY     76  38  25 SE13G22   30.16F
$$

REGIONAL REPORTS...WYOMING/IDAHO/WASHINGTON

CITY           SKY/WX    TMP DP  RH WIND       PRES   REMARKS
GILLETTE       SUNNY     83  36  18 SE9G18    30.10F
SHERIDAN       SUNNY     85  40  20 SE9G18    30.05F
BUFFALO WY     SUNNY     82  39  21 SE14      30.13F
CODY           SUNNY     85  33  15 E12       30.09F
YELLOWSTONE LA   N/A     75  25  15 VRB3      30.31F
IDAHO FALLS    MOSUNNY   86  40  19 VRB5      30.08F
SALMON         CLOUDY    88  46  23 NW5       29.91F
BOISE          SUNNY     93  49  22 N6        29.86F HX  90
SPOKANE        CLOUDY    82  54  37 S9        29.86R
$$

REGIONAL REPORTS...ALBERTA

CITY           SKY/WX    TMP DP  RH WIND       PRES   REMARKS
EDMONTON       PTSUNNY   75  55  50 S3        29.68F
CALGARY        PTSUNNY   82  45  26 S8        29.76F
MEDICINE HAT   PTSUNNY   90  45  20 S22G31    29.75F
WATERTON GATE    N/A     84  41  21 SW16G23     N/A
CARDSTON         N/A     86  37  17 W9          N/A
MILK RIVER       N/A     88  48  25 SW12G18     N/A
$$

REGIONAL REPORTS...SASKATCHEWAN

CITY           SKY/WX    TMP DP  RH WIND       PRES   REMARKS
SWIFT CURRENT  SUNNY     79  45  29 S18G30    29.90F
REGINA         MOSUNNY   75  46  35 SE16G24   30.01F
SASKATOON      CLOUDY    73  46  38 S20G25    29.94F
CYPRESS HILLS    N/A     75  39  27 S15G23      N/A
ROCKGLEN         N/A     79  36  21 S16G23      N/A
$$



USA.gov is the U.S. government's official web portal to all federal, state and local government web resources and services.